Time,TemperatureF,DewpointF,PressureIn,WindDirection,WindDirectionDegrees,WindSpeedMPH,WindSpeedGustMPH,Humidity,HourlyPrecipIn,Conditions,Clouds,dailyrainin,SoftwareType,DateUTC
2013-06-19 00:00:00,48.0,47.0,30.12,SW,225,3.0,6.0,93,0.00,,,0.00,Rainwise IP-100,2013-06-19 04:00:00,
2013-06-19 00:01:00,48.0,47.0,30.12,SW,225,1.0,6.0,93,0.00,,,0.00,Rainwise IP-100,2013-06-19 04:01:00,
2013-06-19 00:06:00,47.0,46.0,30.12,SW,225,2.0,3.0,96,0.00,,,0.00,Rainwise IP-100,2013-06-19 04:06:00,
2013-06-19 00:11:00,47.0,46.0,30.13,SW,225,4.0,6.0,97,0.00,,,0.00,Rainwise IP-100,2013-06-19 04:11:00,
2013-06-19 00:16:00,47.0,46.0,30.13,South,180,0.0,6.0,97,0.00,,,0.00,Rainwise IP-100,2013-06-19 04:16:00,
2013-06-19 00:21:00,47.0,46.0,30.13,SW,225,3.0,5.0,96,0.00,,,0.00,Rainwise IP-100,2013-06-19 04:21:00,
2013-06-19 00:26:00,47.0,46.0,30.13,South,180,1.0,4.0,96,0.00,,,0.00,Rainwise IP-100,2013-06-19 04:26:00,
2013-06-19 00:31:00,47.0,46.0,30.13,South,180,2.0,4.0,97,0.00,,,0.00,Rainwise IP-100,2013-06-19 04:31:00,
2013-06-19 00:36:00,47.0,46.0,30.13,SW,225,3.0,3.0,97,0.00,,,0.00,Rainwise IP-100,2013-06-19 04:36:00,
2013-06-19 00:41:00,46.0,45.0,30.13,SW,225,0.0,3.0,97,0.00,,,0.00,Rainwise IP-100,2013-06-19 04:41:00,
2013-06-19 00:46:00,47.0,46.0,30.13,SSE,157,5.0,5.0,97,0.00,,,0.00,Rainwise IP-100,2013-06-19 04:46:00,
2013-06-19 00:51:00,47.0,46.0,30.12,SSE,157,4.0,7.0,97,0.00,,,0.00,Rainwise IP-100,2013-06-19 04:51:00,
2013-06-19 00:56:00,47.0,46.0,30.12,SSE,157,2.0,6.0,97,0.00,,,0.00,Rainwise IP-100,2013-06-19 04:56:00,
2013-06-19 01:01:00,47.0,46.0,30.12,South,180,0.0,4.0,97,0.00,,,0.00,Rainwise IP-100,2013-06-19 05:01:00,
2013-06-19 01:06:00,48.0,47.5,30.12,SSE,157,5.0,6.0,96,0.00,,,0.00,Rainwise IP-100,2013-06-19 05:06:00,
2013-06-19 01:11:00,48.0,47.0,30.12,SSE,157,5.0,6.0,93,0.00,,,0.00,Rainwise IP-100,2013-06-19 05:11:00,
2013-06-19 01:15:00,50.0,46.0,30.11,South,180,4.0,6.0,87,0.00,,,0.00,Rainwise IP-100,2013-06-19 05:15:00,
2013-06-19 01:20:00,50.0,47.0,30.11,SSE,157,3.0,6.0,88,0.00,,,0.00,Rainwise IP-100,2013-06-19 05:20:00,
2013-06-19 01:25:00,49.0,46.0,30.11,SSE,157,5.0,6.0,89,0.00,,,0.00,Rainwise IP-100,2013-06-19 05:25:00,
2013-06-19 01:30:00,49.0,47.0,30.12,SSE,157,4.0,6.0,91,0.00,,,0.00,Rainwise IP-100,2013-06-19 05:30:00,
2013-06-19 01:35:00,49.0,47.0,30.12,SSE,157,5.0,6.0,90,0.00,,,0.00,Rainwise IP-100,2013-06-19 05:35:00,
2013-06-19 01:40:00,50.0,46.0,30.11,SSE,157,6.0,6.0,86,0.00,,,0.00,Rainwise IP-100,2013-06-19 05:40:00,
2013-06-19 01:45:00,50.0,46.0,30.11,SSE,157,5.0,7.0,87,0.00,,,0.00,Rainwise IP-100,2013-06-19 05:45:00,
2013-06-19 01:50:00,50.0,46.0,30.11,SE,135,5.0,6.0,85,0.00,,,0.00,Rainwise IP-100,2013-06-19 05:50:00,
2013-06-19 01:52:00,50.0,46.0,30.11,SE,135,5.0,6.0,85,0.00,,,0.00,Rainwise IP-100,2013-06-19 05:52:00,
2013-06-19 01:57:00,50.0,46.0,30.11,SE,135,1.0,6.0,87,0.00,,,0.00,Rainwise IP-100,2013-06-19 05:57:00,
2013-06-19 02:02:00,49.0,47.0,30.12,SW,225,1.0,4.0,90,0.00,,,0.00,Rainwise IP-100,2013-06-19 06:02:00,
2013-06-19 02:07:00,49.0,47.0,30.12,SSE,157,3.0,6.0,91,0.00,,,0.00,Rainwise IP-100,2013-06-19 06:07:00,
2013-06-19 02:12:00,48.0,47.0,30.12,ESE,112,3.0,6.0,94,0.00,,,0.00,Rainwise IP-100,2013-06-19 06:12:00,
2013-06-19 02:17:00,48.0,46.0,30.12,ESE,112,3.0,4.0,91,0.00,,,0.00,Rainwise IP-100,2013-06-19 06:17:00,
2013-06-19 02:22:00,47.0,45.0,30.12,SSW,202,0.0,7.0,94,0.00,,,0.00,Rainwise IP-100,2013-06-19 06:22:00,
2013-06-19 02:27:00,47.0,45.0,30.12,SE,135,4.0,6.0,95,0.00,,,0.00,Rainwise IP-100,2013-06-19 06:27:00,
2013-06-19 02:32:00,47.0,46.0,30.12,SE,135,2.0,5.0,97,0.00,,,0.00,Rainwise IP-100,2013-06-19 06:32:00,
2013-06-19 02:37:00,47.0,46.0,30.12,SE,135,2.0,4.0,97,0.00,,,0.00,Rainwise IP-100,2013-06-19 06:37:00,
2013-06-19 02:42:00,47.0,46.0,30.12,SE,135,1.0,4.0,96,0.00,,,0.00,Rainwise IP-100,2013-06-19 06:42:00,
2013-06-19 02:47:00,47.0,46.0,30.12,SE,135,4.0,5.0,96,0.00,,,0.00,Rainwise IP-100,2013-06-19 06:47:00,
2013-06-19 02:52:00,47.0,46.0,30.12,SE,135,1.0,4.0,97,0.00,,,0.00,Rainwise IP-100,2013-06-19 06:52:00,
2013-06-19 02:57:00,46.0,45.0,30.12,SE,135,4.0,4.0,97,0.00,,,0.00,Rainwise IP-100,2013-06-19 06:57:00,
2013-06-19 03:02:00,47.0,46.0,30.12,SE,135,3.0,5.0,96,0.00,,,0.00,Rainwise IP-100,2013-06-19 07:02:00,
2013-06-19 03:07:00,46.0,45.0,30.12,SE,135,1.0,5.0,97,0.00,,,0.00,Rainwise IP-100,2013-06-19 07:07:00,
2013-06-19 03:12:00,46.0,45.0,30.13,SE,135,2.0,3.0,97,0.00,,,0.00,Rainwise IP-100,2013-06-19 07:12:00,
2013-06-19 03:17:00,46.0,45.0,30.13,SE,135,0.0,3.0,97,0.00,,,0.00,Rainwise IP-100,2013-06-19 07:17:00,
2013-06-19 03:22:00,45.0,44.0,30.13,SE,135,0.0,0.0,97,0.00,,,0.00,Rainwise IP-100,2013-06-19 07:22:00,
2013-06-19 03:27:00,44.0,43.0,30.13,SE,135,0.0,0.0,97,0.00,,,0.00,Rainwise IP-100,2013-06-19 07:27:00,
2013-06-19 03:32:00,44.0,43.0,30.14,SE,135,0.0,0.0,97,0.00,,,0.00,Rainwise IP-100,2013-06-19 07:32:00,
2013-06-19 03:37:00,44.0,43.0,30.14,SE,135,0.0,0.0,97,0.00,,,0.00,Rainwise IP-100,2013-06-19 07:37:00,
2013-06-19 03:42:00,44.0,43.0,30.15,SE,135,2.0,2.0,97,0.00,,,0.00,Rainwise IP-100,2013-06-19 07:42:00,
2013-06-19 03:47:00,44.0,43.0,30.15,SE,135,0.0,2.0,97,0.00,,,0.00,Rainwise IP-100,2013-06-19 07:47:00,
2013-06-19 03:52:00,44.0,43.0,30.15,SE,135,5.0,5.0,97,0.00,,,0.00,Rainwise IP-100,2013-06-19 07:52:00,
2013-06-19 03:57:00,44.0,43.0,30.15,SE,135,6.0,7.0,97,0.00,,,0.00,Rainwise IP-100,2013-06-19 07:57:00,
2013-06-19 04:02:00,44.0,43.0,30.15,SSE,157,6.0,7.0,97,0.00,,,0.00,Rainwise IP-100,2013-06-19 08:02:00,
2013-06-19 04:07:00,44.0,43.0,30.15,SSE,157,3.0,6.0,97,0.00,,,0.00,Rainwise IP-100,2013-06-19 08:07:00,
2013-06-19 04:12:00,44.0,43.0,30.15,South,180,4.0,5.0,97,0.00,,,0.00,Rainwise IP-100,2013-06-19 08:12:00,
2013-06-19 04:17:00,44.0,43.0,30.15,SSE,157,0.0,6.0,97,0.00,,,0.00,Rainwise IP-100,2013-06-19 08:17:00,
2013-06-19 04:22:00,44.0,43.0,30.16,South,180,6.0,6.0,97,0.00,,,0.00,Rainwise IP-100,2013-06-19 08:22:00,
2013-06-19 04:27:00,44.0,43.0,30.16,SSE,157,5.0,6.0,97,0.00,,,0.00,Rainwise IP-100,2013-06-19 08:27:00,
2013-06-19 04:32:00,44.0,43.0,30.16,SSE,157,1.0,5.0,97,0.00,,,0.00,Rainwise IP-100,2013-06-19 08:32:00,
2013-06-19 04:37:00,44.0,43.0,30.16,SSE,157,0.0,2.0,97,0.00,,,0.00,Rainwise IP-100,2013-06-19 08:37:00,
2013-06-19 04:42:00,43.0,42.0,30.16,SSW,202,2.0,3.0,96,0.00,,,0.00,Rainwise IP-100,2013-06-19 08:42:00,
2013-06-19 04:47:00,43.0,42.0,30.16,SSW,202,2.0,3.0,96,0.00,,,0.00,Rainwise IP-100,2013-06-19 08:47:00,
2013-06-19 04:52:00,42.0,41.0,30.16,SSW,202,3.0,3.0,96,0.00,,,0.00,Rainwise IP-100,2013-06-19 08:52:00,
2013-06-19 04:57:00,42.0,41.0,30.16,SSW,202,1.0,3.0,96,0.00,,,0.00,Rainwise IP-100,2013-06-19 08:57:00,
2013-06-19 05:02:00,42.0,41.0,30.17,SSW,202,5.0,5.0,96,0.00,,,0.00,Rainwise IP-100,2013-06-19 09:02:00,
2013-06-19 05:07:00,43.0,42.0,30.17,South,180,3.0,6.0,96,0.00,,,0.00,Rainwise IP-100,2013-06-19 09:07:00,
2013-06-19 05:12:00,43.0,42.0,30.17,South,180,3.0,5.0,96,0.00,,,0.00,Rainwise IP-100,2013-06-19 09:12:00,
2013-06-19 05:17:00,43.0,42.0,30.17,SSW,202,3.0,6.0,96,0.00,,,0.00,Rainwise IP-100,2013-06-19 09:17:00,
2013-06-19 05:22:00,43.0,42.0,30.17,SSW,202,0.0,5.0,96,0.00,,,0.00,Rainwise IP-100,2013-06-19 09:22:00,
2013-06-19 05:27:00,43.0,42.0,30.17,SSW,202,0.0,0.0,96,0.00,,,0.00,Rainwise IP-100,2013-06-19 09:27:00,
2013-06-19 05:32:00,43.0,42.0,30.17,SSW,202,1.0,2.0,96,0.00,,,0.00,Rainwise IP-100,2013-06-19 09:32:00,
2013-06-19 05:37:00,43.0,42.0,30.17,SSW,202,1.0,4.0,96,0.00,,,0.00,Rainwise IP-100,2013-06-19 09:37:00,
2013-06-19 05:42:00,43.0,42.0,30.17,SSW,202,2.0,3.0,96,0.00,,,0.00,Rainwise IP-100,2013-06-19 09:42:00,
2013-06-19 05:47:00,43.0,42.0,30.17,SSE,157,4.0,4.0,96,0.00,,,0.00,Rainwise IP-100,2013-06-19 09:47:00,
2013-06-19 05:52:00,43.0,42.0,30.18,SSE,157,0.0,4.0,96,0.00,,,0.00,Rainwise IP-100,2013-06-19 09:52:00,
2013-06-19 05:57:00,43.0,42.0,30.18,SSE,157,3.0,3.0,96,0.00,,,0.00,Rainwise IP-100,2013-06-19 09:57:00,
2013-06-19 06:02:00,43.0,42.0,30.18,SSE,157,3.0,4.0,96,0.00,,,0.00,Rainwise IP-100,2013-06-19 10:02:00,
2013-06-19 06:07:00,43.0,42.0,30.18,SSE,157,2.0,3.0,96,0.00,,,0.00,Rainwise IP-100,2013-06-19 10:07:00,
2013-06-19 06:12:00,43.0,42.0,30.18,SSE,157,3.0,3.0,96,0.00,,,0.00,Rainwise IP-100,2013-06-19 10:12:00,
2013-06-19 06:17:00,44.0,43.0,30.18,South,180,6.0,6.0,97,0.00,,,0.00,Rainwise IP-100,2013-06-19 10:17:00,
2013-06-19 06:22:00,44.0,43.0,30.18,SE,135,2.0,6.0,97,0.00,,,0.00,Rainwise IP-100,2013-06-19 10:22:00,
2013-06-19 06:27:00,44.0,43.0,30.18,SE,135,0.0,2.0,97,0.00,,,0.00,Rainwise IP-100,2013-06-19 10:27:00,
2013-06-19 06:32:00,44.0,43.0,30.18,SE,135,0.0,0.0,97,0.00,,,0.00,Rainwise IP-100,2013-06-19 10:32:00,
2013-06-19 06:37:00,44.0,43.0,30.18,SE,135,0.0,0.0,97,0.00,,,0.00,Rainwise IP-100,2013-06-19 10:37:00,
2013-06-19 06:42:00,45.0,44.0,30.18,SE,135,0.0,0.0,97,0.00,,,0.00,Rainwise IP-100,2013-06-19 10:42:00,
2013-06-19 06:47:00,46.0,45.0,30.18,SE,135,0.0,0.0,97,0.00,,,0.00,Rainwise IP-100,2013-06-19 10:47:00,
2013-06-19 06:52:00,47.0,46.0,30.17,SE,135,0.0,0.0,97,0.00,,,0.00,Rainwise IP-100,2013-06-19 10:52:00,
2013-06-19 06:57:00,48.0,47.5,30.17,SE,135,0.0,0.0,97,0.00,,,0.00,Rainwise IP-100,2013-06-19 10:57:00,
2013-06-19 07:02:00,48.0,47.5,30.17,SE,135,0.0,0.0,97,0.00,,,0.00,Rainwise IP-100,2013-06-19 11:02:00,
2013-06-19 07:07:00,49.0,48.0,30.17,SE,135,0.0,0.0,97,0.00,,,0.00,Rainwise IP-100,2013-06-19 11:07:00,
2013-06-19 07:12:00,50.0,49.0,30.18,SE,135,0.0,0.0,97,0.00,,,0.00,Rainwise IP-100,2013-06-19 11:12:00,
2013-06-19 07:17:00,49.0,48.0,30.18,SE,135,0.0,0.0,97,0.00,,,0.00,Rainwise IP-100,2013-06-19 11:17:00,
2013-06-19 07:22:00,50.0,49.0,30.17,SE,135,0.0,0.0,97,0.00,,,0.00,Rainwise IP-100,2013-06-19 11:22:00,
2013-06-19 07:27:00,51.0,50.0,30.17,SE,135,0.0,0.0,96,0.00,,,0.00,Rainwise IP-100,2013-06-19 11:27:00,
2013-06-19 07:32:00,51.0,49.0,30.17,NW,315,3.0,5.0,91,0.00,,,0.00,Rainwise IP-100,2013-06-19 11:32:00,
2013-06-19 07:36:00,51.0,49.0,30.17,NW,315,3.0,5.0,91,0.00,,,0.00,Rainwise IP-100,2013-06-19 11:36:00,
2013-06-19 07:38:00,51.0,48.0,30.17,NW,315,1.0,4.0,90,0.00,,,0.00,Rainwise IP-100,2013-06-19 11:38:00,
2013-06-19 07:43:00,52.0,48.0,30.18,NW,315,1.0,2.0,88,0.00,,,0.00,Rainwise IP-100,2013-06-19 11:43:00,
2013-06-19 07:48:00,53.0,47.5,30.18,NW,315,0.0,2.0,83,0.00,,,0.00,Rainwise IP-100,2013-06-19 11:48:00,
2013-06-19 07:53:00,54.0,47.0,30.17,NW,315,0.0,2.0,77,0.00,,,0.00,Rainwise IP-100,2013-06-19 11:53:00,
2013-06-19 07:58:00,55.0,47.5,30.17,NE,45,0.0,3.0,75,0.00,,,0.00,Rainwise IP-100,2013-06-19 11:58:00,
2013-06-19 08:03:00,56.0,47.0,30.16,East,90,1.0,3.0,71,0.00,,,0.00,Rainwise IP-100,2013-06-19 12:03:00,
2013-06-19 08:08:00,56.0,46.0,30.16,NE,45,1.0,2.0,69,0.00,,,0.00,Rainwise IP-100,2013-06-19 12:08:00,
2013-06-19 08:13:00,57.0,45.0,30.16,ENE,67,3.0,4.0,63,0.00,,,0.00,Rainwise IP-100,2013-06-19 12:13:00,
2013-06-19 08:18:00,57.0,46.0,30.16,ENE,67,1.0,4.0,66,0.00,,,0.00,Rainwise IP-100,2013-06-19 12:18:00,
2013-06-19 08:23:00,58.0,47.0,30.16,East,90,2.0,4.0,66,0.00,,,0.00,Rainwise IP-100,2013-06-19 12:23:00,
2013-06-19 08:28:00,58.0,44.0,30.16,East,90,3.0,3.0,59,0.00,,,0.00,Rainwise IP-100,2013-06-19 12:28:00,
2013-06-19 08:33:00,59.0,47.0,30.17,East,90,2.0,5.0,63,0.00,,,0.00,Rainwise IP-100,2013-06-19 12:33:00,
2013-06-19 08:38:00,58.0,44.0,30.17,East,90,1.0,6.0,60,0.00,,,0.00,Rainwise IP-100,2013-06-19 12:38:00,
2013-06-19 08:43:00,58.0,45.0,30.17,ESE,112,2.0,5.0,62,0.00,,,0.00,Rainwise IP-100,2013-06-19 12:43:00,
2013-06-19 08:48:00,57.0,45.0,30.17,ESE,112,3.0,5.0,63,0.00,,,0.00,Rainwise IP-100,2013-06-19 12:48:00,
2013-06-19 08:53:00,58.0,45.0,30.17,ENE,67,2.0,5.0,62,0.00,,,0.00,Rainwise IP-100,2013-06-19 12:53:00,
2013-06-19 08:58:00,59.0,46.0,30.17,North,360,0.0,4.0,62,0.00,,,0.00,Rainwise IP-100,2013-06-19 12:58:00,
2013-06-19 09:03:00,59.0,44.0,30.17,ENE,67,5.0,6.0,57,0.00,,,0.00,Rainwise IP-100,2013-06-19 13:03:00,
2013-06-19 09:08:00,60.0,47.0,30.17,East,90,0.0,6.0,61,0.00,,,0.00,Rainwise IP-100,2013-06-19 13:08:00,
2013-06-19 09:13:00,60.0,47.5,30.17,East,90,3.0,3.0,64,0.00,,,0.00,Rainwise IP-100,2013-06-19 13:13:00,
2013-06-19 09:18:00,59.0,45.0,30.17,ESE,112,3.0,6.0,60,0.00,,,0.00,Rainwise IP-100,2013-06-19 13:18:00,
2013-06-19 09:23:00,60.0,46.0,30.18,East,90,3.0,6.0,60,0.00,,,0.00,Rainwise IP-100,2013-06-19 13:23:00,
2013-06-19 09:28:00,60.0,44.0,30.18,NW,315,5.0,7.0,55,0.00,,,0.00,Rainwise IP-100,2013-06-19 13:28:00,
2013-06-19 09:33:00,61.0,46.0,30.17,North,360,1.0,6.0,57,0.00,,,0.00,Rainwise IP-100,2013-06-19 13:33:00,
2013-06-19 09:38:00,61.0,42.0,30.17,North,360,2.0,6.0,50,0.00,,,0.00,Rainwise IP-100,2013-06-19 13:38:00,
2013-06-19 09:43:00,62.0,45.0,30.17,NNE,22,1.0,4.0,53,0.00,,,0.00,Rainwise IP-100,2013-06-19 13:43:00,
2013-06-19 09:48:00,61.0,43.0,30.17,NW,315,9.0,10.0,51,0.00,,,0.00,Rainwise IP-100,2013-06-19 13:48:00,
2013-06-19 09:53:00,60.0,43.0,30.17,North,360,5.0,11.0,53,0.00,,,0.00,Rainwise IP-100,2013-06-19 13:53:00,
2013-06-19 09:58:00,62.0,40.0,30.17,East,90,3.0,10.0,44,0.00,,,0.00,Rainwise IP-100,2013-06-19 13:58:00,
2013-06-19 10:03:00,62.0,39.0,30.17,North,360,7.0,7.0,43,0.00,,,0.00,Rainwise IP-100,2013-06-19 14:03:00,
2013-06-19 10:08:00,60.0,38.0,30.17,NNW,337,7.0,19.0,44,0.00,,,0.00,Rainwise IP-100,2013-06-19 14:08:00,
2013-06-19 10:13:00,59.0,40.0,30.18,North,360,9.0,16.0,49,0.00,,,0.00,Rainwise IP-100,2013-06-19 14:13:00,
2013-06-19 10:18:00,60.0,40.0,30.18,North,360,6.0,16.0,48,0.00,,,0.00,Rainwise IP-100,2013-06-19 14:18:00,
2013-06-19 10:23:00,60.0,40.0,30.18,WNW,292,4.0,17.0,49,0.00,,,0.00,Rainwise IP-100,2013-06-19 14:23:00,
2013-06-19 10:28:00,60.0,39.0,30.18,North,360,9.0,20.0,47,0.00,,,0.00,Rainwise IP-100,2013-06-19 14:28:00,
2013-06-19 10:33:00,59.0,39.0,30.18,NNW,337,13.0,16.0,47,0.00,,,0.00,Rainwise IP-100,2013-06-19 14:33:00,
2013-06-19 10:38:00,60.0,40.0,30.18,ENE,67,6.0,15.0,49,0.00,,,0.00,Rainwise IP-100,2013-06-19 14:38:00,
2013-06-19 10:43:00,60.0,42.0,30.18,West,270,2.0,13.0,51,0.00,,,0.00,Rainwise IP-100,2013-06-19 14:43:00,
2013-06-19 10:48:00,61.0,37.0,30.18,North,360,5.0,10.0,40,0.00,,,0.00,Rainwise IP-100,2013-06-19 14:48:00,
2013-06-19 10:53:00,61.0,42.0,30.17,NE,45,1.0,12.0,50,0.00,,,0.00,Rainwise IP-100,2013-06-19 14:53:00,
2013-06-19 10:58:00,62.0,40.0,30.17,NNE,22,3.0,8.0,45,0.00,,,0.00,Rainwise IP-100,2013-06-19 14:58:00,
2013-06-19 11:03:00,61.0,40.0,30.17,NW,315,8.0,12.0,47,0.00,,,0.00,Rainwise IP-100,2013-06-19 15:03:00,
2013-06-19 11:08:00,61.0,40.0,30.17,NNW,337,5.0,11.0,46,0.00,,,0.00,Rainwise IP-100,2013-06-19 15:08:00,
2013-06-19 11:13:00,62.0,39.0,30.17,North,360,4.0,9.0,42,0.00,,,0.00,Rainwise IP-100,2013-06-19 15:13:00,
2013-06-19 11:18:00,63.0,41.0,30.17,ESE,112,4.0,7.0,45,0.00,,,0.00,Rainwise IP-100,2013-06-19 15:18:00,
2013-06-19 11:23:00,63.0,40.0,30.17,ENE,67,3.0,9.0,43,0.00,,,0.00,Rainwise IP-100,2013-06-19 15:23:00,
2013-06-19 11:28:00,62.0,37.0,30.17,NNE,22,5.0,9.0,40,0.00,,,0.00,Rainwise IP-100,2013-06-19 15:28:00,
2013-06-19 11:33:00,63.0,39.0,30.17,North,360,2.0,9.0,42,0.00,,,0.00,Rainwise IP-100,2013-06-19 15:33:00,
2013-06-19 11:38:00,62.0,37.0,30.17,NW,315,7.0,10.0,39,0.00,,,0.00,Rainwise IP-100,2013-06-19 15:38:00,
2013-06-19 11:43:00,63.0,41.0,30.17,North,360,3.0,8.0,44,0.00,,,0.00,Rainwise IP-100,2013-06-19 15:43:00,
2013-06-19 11:48:00,63.0,41.0,30.17,East,90,4.0,10.0,44,0.00,,,0.00,Rainwise IP-100,2013-06-19 15:48:00,
2013-06-19 11:53:00,64.0,44.0,30.17,North,360,0.0,6.0,48,0.00,,,0.00,Rainwise IP-100,2013-06-19 15:53:00,
2013-06-19 11:58:00,64.0,41.0,30.17,ENE,67,6.0,12.0,44,0.00,,,0.00,Rainwise IP-100,2013-06-19 15:58:00,
2013-06-19 12:03:00,64.0,37.0,30.17,North,360,2.0,6.0,36,0.00,,,0.00,Rainwise IP-100,2013-06-19 16:03:00,
2013-06-19 12:08:00,64.0,39.0,30.17,NW,315,1.0,8.0,40,0.00,,,0.00,Rainwise IP-100,2013-06-19 16:08:00,
2013-06-19 12:13:00,63.0,40.0,30.17,NNE,22,2.0,12.0,43,0.00,,,0.00,Rainwise IP-100,2013-06-19 16:13:00,
2013-06-19 12:18:00,64.0,40.0,30.17,NNW,337,11.0,11.0,42,0.00,,,0.00,Rainwise IP-100,2013-06-19 16:18:00,
2013-06-19 12:23:00,65.0,40.0,30.17,NNW,337,2.0,13.0,41,0.00,,,0.00,Rainwise IP-100,2013-06-19 16:23:00,
2013-06-19 12:28:00,65.0,42.0,30.17,NNE,22,1.0,6.0,43,0.00,,,0.00,Rainwise IP-100,2013-06-19 16:28:00,
2013-06-19 12:33:00,65.0,41.0,30.17,North,360,5.0,5.0,42,0.00,,,0.00,Rainwise IP-100,2013-06-19 16:33:00,
2013-06-19 12:38:00,64.0,43.0,30.17,NE,45,2.0,9.0,47,0.00,,,0.00,Rainwise IP-100,2013-06-19 16:38:00,
2013-06-19 12:43:00,65.0,41.0,30.17,NE,45,0.0,8.0,42,0.00,,,0.00,Rainwise IP-100,2013-06-19 16:43:00,
2013-06-19 12:48:00,66.0,41.0,30.17,East,90,4.0,4.0,41,0.00,,,0.00,Rainwise IP-100,2013-06-19 16:48:00,
2013-06-19 12:53:00,66.0,41.0,30.17,North,360,2.0,5.0,41,0.00,,,0.00,Rainwise IP-100,2013-06-19 16:53:00,
2013-06-19 12:58:00,66.0,40.0,30.17,NNW,337,5.0,6.0,39,0.00,,,0.00,Rainwise IP-100,2013-06-19 16:58:00,
2013-06-19 13:03:00,66.0,44.0,30.16,East,90,4.0,10.0,45,0.00,,,0.00,Rainwise IP-100,2013-06-19 17:03:00,
2013-06-19 13:08:00,65.0,44.0,30.16,NW,315,10.0,12.0,47,0.00,,,0.00,Rainwise IP-100,2013-06-19 17:08:00,
2013-06-19 13:13:00,65.0,42.0,30.17,North,360,6.0,10.0,44,0.00,,,0.00,Rainwise IP-100,2013-06-19 17:13:00,
2013-06-19 13:18:00,64.0,43.0,30.17,NW,315,6.0,10.0,47,0.00,,,0.00,Rainwise IP-100,2013-06-19 17:18:00,
2013-06-19 13:24:00,63.0,42.0,30.17,NW,315,9.0,14.0,46,0.00,,,0.00,Rainwise IP-100,2013-06-19 17:24:00,
2013-06-19 13:29:00,62.0,44.0,30.17,NNW,337,11.0,11.0,52,0.00,,,0.00,Rainwise IP-100,2013-06-19 17:29:00,
2013-06-19 13:34:00,63.0,43.0,30.17,North,360,10.0,12.0,49,0.00,,,0.00,Rainwise IP-100,2013-06-19 17:34:00,
2013-06-19 13:39:00,63.0,43.0,30.17,WNW,292,13.0,13.0,48,0.00,,,0.00,Rainwise IP-100,2013-06-19 17:39:00,
2013-06-19 13:44:00,63.0,43.0,30.17,NW,315,9.0,17.0,48,0.00,,,0.00,Rainwise IP-100,2013-06-19 17:44:00,
2013-06-19 13:49:00,64.0,47.5,30.17,NNE,22,11.0,12.0,55,0.00,,,0.00,Rainwise IP-100,2013-06-19 17:49:00,
2013-06-19 13:54:00,63.0,44.0,30.17,NW,315,5.0,13.0,50,0.00,,,0.00,Rainwise IP-100,2013-06-19 17:54:00,
2013-06-19 13:59:00,64.0,39.0,30.17,North,360,2.0,8.0,40,0.00,,,0.00,Rainwise IP-100,2013-06-19 17:59:00,
2013-06-19 14:04:00,63.0,42.0,30.17,WNW,292,9.0,13.0,46,0.00,,,0.00,Rainwise IP-100,2013-06-19 18:04:00,
2013-06-19 14:09:00,63.0,42.0,30.17,North,360,8.0,16.0,46,0.00,,,0.00,Rainwise IP-100,2013-06-19 18:09:00,
2013-06-19 14:14:00,64.0,44.0,30.17,NNW,337,12.0,15.0,48,0.00,,,0.00,Rainwise IP-100,2013-06-19 18:14:00,
2013-06-19 14:19:00,64.0,42.0,30.17,North,360,6.0,16.0,45,0.00,,,0.00,Rainwise IP-100,2013-06-19 18:19:00,
2013-06-19 14:24:00,64.0,46.0,30.17,North,360,10.0,15.0,52,0.00,,,0.00,Rainwise IP-100,2013-06-19 18:24:00,
2013-06-19 14:29:00,64.0,43.0,30.17,NW,315,13.0,16.0,47,0.00,,,0.00,Rainwise IP-100,2013-06-19 18:29:00,
2013-06-19 14:34:00,63.0,43.0,30.17,WNW,292,6.0,15.0,48,0.00,,,0.00,Rainwise IP-100,2013-06-19 18:34:00,
2013-06-19 14:39:00,64.0,43.0,30.17,NW,315,8.0,13.0,47,0.00,,,0.00,Rainwise IP-100,2013-06-19 18:39:00,
2013-06-19 14:44:00,63.0,42.0,30.18,West,270,6.0,9.0,46,0.00,,,0.00,Rainwise IP-100,2013-06-19 18:44:00,
2013-06-19 14:49:00,64.0,44.0,30.18,NE,45,2.0,11.0,49,0.00,,,0.00,Rainwise IP-100,2013-06-19 18:49:00,
2013-06-19 14:54:00,64.0,45.0,30.17,NW,315,6.0,10.0,50,0.00,,,0.00,Rainwise IP-100,2013-06-19 18:54:00,
2013-06-19 14:59:00,64.0,43.0,30.17,NNW,337,6.0,13.0,46,0.00,,,0.00,Rainwise IP-100,2013-06-19 18:59:00,
2013-06-19 15:04:00,64.0,43.0,30.17,NNW,337,5.0,13.0,47,0.00,,,0.00,Rainwise IP-100,2013-06-19 19:04:00,
2013-06-19 15:09:00,63.0,43.0,30.17,NW,315,8.0,18.0,48,0.00,,,0.00,Rainwise IP-100,2013-06-19 19:09:00,
2013-06-19 15:14:00,63.0,42.0,30.17,North,360,7.0,15.0,47,0.00,,,0.00,Rainwise IP-100,2013-06-19 19:14:00,
2013-06-19 15:19:00,64.0,45.0,30.17,NW,315,9.0,16.0,50,0.00,,,0.00,Rainwise IP-100,2013-06-19 19:19:00,
2013-06-19 15:24:00,64.0,44.0,30.17,NNW,337,13.0,18.0,48,0.00,,,0.00,Rainwise IP-100,2013-06-19 19:24:00,
2013-06-19 15:29:00,64.0,45.0,30.17,NNW,337,6.0,18.0,50,0.00,,,0.00,Rainwise IP-100,2013-06-19 19:29:00,
2013-06-19 15:34:00,64.0,43.0,30.17,North,360,12.0,20.0,47,0.00,,,0.00,Rainwise IP-100,2013-06-19 19:34:00,
2013-06-19 15:39:00,64.0,45.0,30.17,NW,315,11.0,15.0,50,0.00,,,0.00,Rainwise IP-100,2013-06-19 19:39:00,
2013-06-19 15:44:00,64.0,43.0,30.17,NNW,337,10.0,13.0,46,0.00,,,0.00,Rainwise IP-100,2013-06-19 19:44:00,
2013-06-19 15:49:00,64.0,44.0,30.17,WNW,292,8.0,13.0,49,0.00,,,0.00,Rainwise IP-100,2013-06-19 19:49:00,
2013-06-19 15:54:00,64.0,47.0,30.17,North,360,7.0,16.0,53,0.00,,,0.00,Rainwise IP-100,2013-06-19 19:54:00,
2013-06-19 15:59:00,65.0,45.0,30.17,North,360,15.0,15.0,48,0.00,,,0.00,Rainwise IP-100,2013-06-19 19:59:00,
2013-06-19 16:04:00,65.0,46.0,30.17,NE,45,3.0,16.0,50,0.00,,,0.00,Rainwise IP-100,2013-06-19 20:04:00,
2013-06-19 16:09:00,66.0,45.0,30.17,NNE,22,8.0,13.0,47,0.00,,,0.00,Rainwise IP-100,2013-06-19 20:09:00,
2013-06-19 16:14:00,65.0,45.0,30.17,NW,315,10.0,12.0,49,0.00,,,0.00,Rainwise IP-100,2013-06-19 20:14:00,
2013-06-19 16:19:00,64.0,45.0,30.17,NW,315,9.0,15.0,50,0.00,,,0.00,Rainwise IP-100,2013-06-19 20:19:00,
2013-06-19 16:24:00,64.0,45.0,30.17,NNW,337,10.0,13.0,50,0.00,,,0.00,Rainwise IP-100,2013-06-19 20:24:00,
2013-06-19 16:29:00,64.0,44.0,30.17,WNW,292,7.0,16.0,48,0.00,,,0.00,Rainwise IP-100,2013-06-19 20:29:00,
2013-06-19 16:34:00,65.0,45.0,30.17,NW,315,7.0,15.0,48,0.00,,,0.00,Rainwise IP-100,2013-06-19 20:34:00,
2013-06-19 16:39:00,65.0,44.0,30.17,North,360,3.0,12.0,47,0.00,,,0.00,Rainwise IP-100,2013-06-19 20:39:00,
2013-06-19 16:44:00,65.0,45.0,30.17,NNW,337,7.0,9.0,48,0.00,,,0.00,Rainwise IP-100,2013-06-19 20:44:00,
2013-06-19 16:49:00,65.0,44.0,30.17,WSW,247,1.0,15.0,46,0.00,,,0.00,Rainwise IP-100,2013-06-19 20:49:00,
2013-06-19 16:54:00,65.0,46.0,30.17,NW,315,7.0,11.0,50,0.00,,,0.00,Rainwise IP-100,2013-06-19 20:54:00,
2013-06-19 16:59:00,64.0,43.0,30.17,NNW,337,10.0,13.0,47,0.00,,,0.00,Rainwise IP-100,2013-06-19 20:59:00,
2013-06-19 17:04:00,64.0,44.0,30.18,NW,315,10.0,15.0,48,0.00,,,0.00,Rainwise IP-100,2013-06-19 21:04:00,
2013-06-19 17:09:00,64.0,44.0,30.18,NW,315,12.0,13.0,48,0.00,,,0.00,Rainwise IP-100,2013-06-19 21:09:00,
2013-06-19 17:14:00,64.0,44.0,30.18,NW,315,12.0,15.0,48,0.00,,,0.00,Rainwise IP-100,2013-06-19 21:14:00,
2013-06-19 17:19:00,64.0,44.0,30.18,NW,315,7.0,15.0,49,0.00,,,0.00,Rainwise IP-100,2013-06-19 21:19:00,
2013-06-19 17:24:00,64.0,44.0,30.18,North,360,6.0,12.0,49,0.00,,,0.00,Rainwise IP-100,2013-06-19 21:24:00,
2013-06-19 17:29:00,64.0,43.0,30.18,NW,315,9.0,12.0,47,0.00,,,0.00,Rainwise IP-100,2013-06-19 21:29:00,
2013-06-19 17:34:00,64.0,44.0,30.18,WNW,292,10.0,13.0,48,0.00,,,0.00,Rainwise IP-100,2013-06-19 21:34:00,
2013-06-19 17:39:00,64.0,44.0,30.18,NNW,337,7.0,11.0,49,0.00,,,0.00,Rainwise IP-100,2013-06-19 21:39:00,
2013-06-19 17:44:00,64.0,46.0,30.17,NNW,337,8.0,10.0,51,0.00,,,0.00,Rainwise IP-100,2013-06-19 21:44:00,
2013-06-19 17:49:00,64.0,44.0,30.17,NW,315,8.0,15.0,48,0.00,,,0.00,Rainwise IP-100,2013-06-19 21:49:00,
2013-06-19 17:54:00,64.0,44.0,30.18,NW,315,7.0,12.0,48,0.00,,,0.00,Rainwise IP-100,2013-06-19 21:54:00,
2013-06-19 17:59:00,64.0,44.0,30.18,NW,315,6.0,11.0,49,0.00,,,0.00,Rainwise IP-100,2013-06-19 21:59:00,
2013-06-19 18:04:00,64.0,44.0,30.18,NNW,337,9.0,13.0,48,0.00,,,0.00,Rainwise IP-100,2013-06-19 22:04:00,
2013-06-19 18:09:00,64.0,43.0,30.18,NW,315,7.0,10.0,46,0.00,,,0.00,Rainwise IP-100,2013-06-19 22:09:00,
2013-06-19 18:14:00,64.0,43.0,30.18,North,360,8.0,11.0,46,0.00,,,0.00,Rainwise IP-100,2013-06-19 22:14:00,
2013-06-19 18:19:00,64.0,43.0,30.18,NW,315,7.0,11.0,47,0.00,,,0.00,Rainwise IP-100,2013-06-19 22:19:00,
2013-06-19 18:24:00,64.0,43.0,30.18,NNW,337,7.0,11.0,47,0.00,,,0.00,Rainwise IP-100,2013-06-19 22:24:00,
2013-06-19 18:29:00,64.0,44.0,30.18,NNW,337,7.0,12.0,48,0.00,,,0.00,Rainwise IP-100,2013-06-19 22:29:00,
2013-06-19 18:34:00,64.0,44.0,30.19,NNW,337,6.0,9.0,49,0.00,,,0.00,Rainwise IP-100,2013-06-19 22:34:00,
2013-06-19 18:39:00,64.0,45.0,30.19,North,360,10.0,10.0,50,0.00,,,0.00,Rainwise IP-100,2013-06-19 22:39:00,
2013-06-19 18:44:00,64.0,45.0,30.19,NW,315,7.0,10.0,50,0.00,,,0.00,Rainwise IP-100,2013-06-19 22:44:00,
2013-06-19 18:49:00,63.0,43.0,30.19,NW,315,10.0,12.0,49,0.00,,,0.00,Rainwise IP-100,2013-06-19 22:49:00,
2013-06-19 18:54:00,63.0,43.0,30.20,North,360,2.0,11.0,49,0.00,,,0.00,Rainwise IP-100,2013-06-19 22:54:00,
2013-06-19 18:59:00,63.0,43.0,30.20,North,360,6.0,10.0,48,0.00,,,0.00,Rainwise IP-100,2013-06-19 22:59:00,
2013-06-19 19:04:00,63.0,45.0,30.19,NNW,337,5.0,8.0,51,0.00,,,0.00,Rainwise IP-100,2013-06-19 23:04:00,
2013-06-19 19:09:00,63.0,45.0,30.19,NNE,22,5.0,9.0,51,0.00,,,0.00,Rainwise IP-100,2013-06-19 23:09:00,
2013-06-19 19:14:00,63.0,45.0,30.19,NW,315,3.0,9.0,52,0.00,,,0.00,Rainwise IP-100,2013-06-19 23:14:00,
2013-06-19 19:19:00,64.0,47.0,30.19,NW,315,1.0,3.0,53,0.00,,,0.00,Rainwise IP-100,2013-06-19 23:19:00,
2013-06-19 19:24:00,64.0,44.0,30.19,North,360,3.0,5.0,49,0.00,,,0.00,Rainwise IP-100,2013-06-19 23:24:00,
2013-06-19 19:29:00,64.0,44.0,30.19,NNW,337,5.0,5.0,48,0.00,,,0.00,Rainwise IP-100,2013-06-19 23:29:00,
2013-06-19 19:34:00,64.0,45.0,30.19,NNW,337,1.0,6.0,50,0.00,,,0.00,Rainwise IP-100,2013-06-19 23:34:00,
2013-06-19 19:39:00,64.0,44.0,30.19,NNW,337,0.0,4.0,49,0.00,,,0.00,Rainwise IP-100,2013-06-19 23:39:00,
2013-06-19 19:44:00,64.0,45.0,30.20,NNW,337,0.0,1.0,50,0.00,,,0.00,Rainwise IP-100,2013-06-19 23:44:00,
2013-06-19 19:49:00,63.0,43.0,30.20,NNW,337,0.0,2.0,49,0.00,,,0.00,Rainwise IP-100,2013-06-19 23:49:00,
2013-06-19 19:54:00,63.0,44.0,30.20,NNW,337,0.0,3.0,50,0.00,,,0.00,Rainwise IP-100,2013-06-19 23:54:00,
2013-06-19 19:59:00,62.0,43.0,30.20,NNW,337,0.0,1.0,50,0.00,,,0.00,Rainwise IP-100,2013-06-19 23:59:00,
2013-06-19 20:04:00,62.0,44.0,30.21,NNW,337,0.0,1.0,52,0.00,,,0.00,Rainwise IP-100,2013-06-20 00:04:00,
2013-06-19 20:09:00,62.0,45.0,30.21,NNW,337,0.0,0.0,53,0.00,,,0.00,Rainwise IP-100,2013-06-20 00:09:00,
2013-06-19 20:14:00,60.0,45.0,30.22,NNW,337,0.0,0.0,58,0.00,,,0.00,Rainwise IP-100,2013-06-20 00:14:00,
2013-06-19 20:19:00,60.0,46.0,30.22,NNW,337,0.0,1.0,59,0.00,,,0.00,Rainwise IP-100,2013-06-20 00:19:00,
2013-06-19 20:24:00,59.0,46.0,30.22,NNW,337,0.0,0.0,62,0.00,,,0.00,Rainwise IP-100,2013-06-20 00:24:00,
2013-06-19 20:29:00,58.0,47.0,30.22,NNW,337,0.0,0.0,66,0.00,,,0.00,Rainwise IP-100,2013-06-20 00:29:00,
2013-06-19 20:34:00,57.0,46.0,30.23,NNW,337,0.0,0.0,67,0.00,,,0.00,Rainwise IP-100,2013-06-20 00:34:00,
2013-06-19 20:39:00,56.0,45.0,30.23,NNW,337,0.0,0.0,67,0.00,,,0.00,Rainwise IP-100,2013-06-20 00:39:00,
2013-06-19 20:44:00,56.0,46.0,30.24,NNW,337,0.0,0.0,69,0.00,,,0.00,Rainwise IP-100,2013-06-20 00:44:00,
2013-06-19 20:49:00,55.0,46.0,30.24,NNW,337,0.0,0.0,71,0.00,,,0.00,Rainwise IP-100,2013-06-20 00:49:00,
2013-06-19 20:54:00,54.0,47.0,30.25,WSW,247,0.0,1.0,75,0.00,,,0.00,Rainwise IP-100,2013-06-20 00:54:00,
2013-06-19 20:59:00,54.0,46.0,30.25,WSW,247,0.0,1.0,74,0.00,,,0.00,Rainwise IP-100,2013-06-20 00:59:00,
2013-06-19 21:04:00,54.0,47.0,30.25,WSW,247,0.0,0.0,75,0.00,,,0.00,Rainwise IP-100,2013-06-20 01:04:00,
2013-06-19 21:09:00,54.0,49.0,30.25,South,180,2.0,0.0,83,0.00,,,0.00,Rainwise IP-100,2013-06-20 01:09:00,
2013-06-19 21:14:00,53.0,47.5,30.25,South,180,0.0,4.0,83,0.00,,,0.00,Rainwise IP-100,2013-06-20 01:14:00,
2013-06-19 21:19:00,53.0,48.0,30.25,South,180,2.0,3.0,86,0.00,,,0.00,Rainwise IP-100,2013-06-20 01:19:00,
2013-06-19 21:24:00,52.0,48.0,30.26,South,180,2.0,3.0,88,0.00,,,0.00,Rainwise IP-100,2013-06-20 01:24:00,
2013-06-19 21:29:00,52.0,48.0,30.26,South,180,2.0,4.0,88,0.00,,,0.00,Rainwise IP-100,2013-06-20 01:29:00,
2013-06-19 21:34:00,52.0,49.0,30.27,South,180,0.0,4.0,89,0.00,,,0.00,Rainwise IP-100,2013-06-20 01:34:00,
2013-06-19 21:39:00,51.0,49.0,30.27,South,180,0.0,1.0,91,0.00,,,0.00,Rainwise IP-100,2013-06-20 01:39:00,
2013-06-19 21:44:00,50.0,47.5,30.27,SW,225,2.0,2.0,92,0.00,,,0.00,Rainwise IP-100,2013-06-20 01:44:00,
2013-06-19 21:49:00,50.0,47.0,30.27,SSW,202,4.0,4.0,90,0.00,,,0.00,Rainwise IP-100,2013-06-20 01:49:00,
2013-06-19 21:54:00,50.0,47.0,30.28,SW,225,1.0,4.0,90,0.00,,,0.00,Rainwise IP-100,2013-06-20 01:54:00,
2013-06-19 21:59:00,50.0,47.5,30.28,SW,225,0.0,2.0,91,0.00,,,0.00,Rainwise IP-100,2013-06-20 01:59:00,
2013-06-19 22:04:00,50.0,47.0,30.29,South,180,4.0,4.0,90,0.00,,,0.00,Rainwise IP-100,2013-06-20 02:04:00,
2013-06-19 22:09:00,50.0,47.5,30.29,South,180,3.0,5.0,91,0.00,,,0.00,Rainwise IP-100,2013-06-20 02:09:00,
2013-06-19 22:14:00,50.0,47.0,30.29,South,180,1.0,5.0,90,0.00,,,0.00,Rainwise IP-100,2013-06-20 02:14:00,
2013-06-19 22:19:00,49.0,47.0,30.29,South,180,1.0,2.0,91,0.00,,,0.00,Rainwise IP-100,2013-06-20 02:19:00,
2013-06-19 22:24:00,49.0,47.0,30.30,SSW,202,0.0,4.0,92,0.00,,,0.00,Rainwise IP-100,2013-06-20 02:24:00,
2013-06-19 22:29:00,49.0,47.5,30.30,SSW,202,4.0,4.0,93,0.00,,,0.00,Rainwise IP-100,2013-06-20 02:29:00,
2013-06-19 22:34:00,49.0,47.0,30.30,SSW,202,3.0,6.0,92,0.00,,,0.00,Rainwise IP-100,2013-06-20 02:34:00,
2013-06-19 22:39:00,49.0,47.0,30.30,South,180,4.0,7.0,91,0.00,,,0.00,Rainwise IP-100,2013-06-20 02:39:00,
2013-06-19 22:44:00,49.0,47.0,30.30,SSW,202,2.0,6.0,92,0.00,,,0.00,Rainwise IP-100,2013-06-20 02:44:00,
2013-06-19 22:49:00,49.0,47.0,30.30,South,180,6.0,7.0,92,0.00,,,0.00,Rainwise IP-100,2013-06-20 02:49:00,
2013-06-19 22:54:00,49.0,47.0,30.30,South,180,6.0,7.0,91,0.00,,,0.00,Rainwise IP-100,2013-06-20 02:54:00,
2013-06-19 22:59:00,48.0,46.0,30.30,South,180,4.0,6.0,91,0.00,,,0.00,Rainwise IP-100,2013-06-20 02:59:00,
2013-06-19 23:04:00,48.0,46.0,30.31,SW,225,5.0,6.0,91,0.00,,,0.00,Rainwise IP-100,2013-06-20 03:04:00,
2013-06-19 23:09:00,48.0,46.0,30.31,SSW,202,3.0,6.0,92,0.00,,,0.00,Rainwise IP-100,2013-06-20 03:09:00,
2013-06-19 23:14:00,48.0,46.0,30.31,South,180,5.0,7.0,92,0.00,,,0.00,Rainwise IP-100,2013-06-20 03:14:00,
2013-06-19 23:19:00,48.0,47.0,30.31,South,180,2.0,6.0,93,0.00,,,0.00,Rainwise IP-100,2013-06-20 03:19:00,
2013-06-19 23:24:00,47.0,45.0,30.31,SSW,202,2.0,5.0,94,0.00,,,0.00,Rainwise IP-100,2013-06-20 03:24:00,
2013-06-19 23:29:00,47.0,45.0,30.31,SSW,202,1.0,3.0,94,0.00,,,0.00,Rainwise IP-100,2013-06-20 03:29:00,
2013-06-19 23:34:00,47.0,46.0,30.32,SSW,202,0.0,2.0,96,0.00,,,0.00,Rainwise IP-100,2013-06-20 03:34:00,
2013-06-19 23:39:00,46.0,45.0,30.32,SSW,202,2.0,2.0,97,0.00,,,0.00,Rainwise IP-100,2013-06-20 03:39:00,
2013-06-19 23:44:00,46.0,45.0,30.33,SSW,202,2.0,4.0,97,0.00,,,0.00,Rainwise IP-100,2013-06-20 03:44:00,
2013-06-19 23:49:00,46.0,45.0,30.33,SSW,202,0.0,3.0,97,0.00,,,0.00,Rainwise IP-100,2013-06-20 03:49:00,
2013-06-19 23:54:00,46.0,45.0,30.32,SSW,202,0.0,0.0,97,0.00,,,0.00,Rainwise IP-100,2013-06-20 03:54:00,
2013-06-19 23:59:00,47.0,46.0,30.32,SSW,202,2.0,4.0,96,0.00,,,0.00,Rainwise IP-100,2013-06-20 03:59:00,